Location: Skalnate Pleso
(49.1889°N, 20.2450°E)
Time: 00:18:32
(UTC+02:00)

Cosmos 1269 Rocket - Pass Details

Date: 25 February 2020
Orbit: 772 x 780 km, 74.1° (Epoch: 05 April)

Event Time Altitude Azimuth Distance (km) Brightness Sun altitude
Exits shadow 04:16:51 11° 331° (NNW) 2,284 6.3 -22.5°
Drops below altitude 10° 04:17:33 10° 338° (NNW) 2,331 6.4 -22.4°
Sets 04:22:10 0° 15° (NNE) 3,266 7.6 -21.7°
